Location: Normandy Village
(37.8755°N, 122.2655°W)
Time: 12:59:23
(UTC+00:00)

Cosmos 1536 - Pass Details

Date: 22 September 2019
Orbit: 540 x 559 km, 82.5° (Epoch: 15 October)

Event Time Altitude Azimuth Distance (km) Brightness Sun altitude
Rises 12:58:58 0° 336° (NNW) 2,705 6.2 -12.2°
Reaches altitude 10° 13:01:31 10° 320° (NW) 1,808 5.2 -11.7°
Maximum altitude 13:04:29 20° 271° (W) 1,270 4.1 -11.1°
Drops below altitude 10° 13:07:26 10° 223° (SW) 1,801 5.0 -10.5°
Sets 13:09:59 0° 206° (SSW) 2,691 6.0 -10.0°
